Waarnemingen

Advertentie
Mijn weer
Aelvdalen, Zweden (2321): temperatuur & dauwpunt: 11.01.2020 23:00:00 - 17.01.2020 23:00:00 (CET)Aelvdalen, Zweden (2321): windsnelheid & windstoten: 11.01.2020 23:00:00 - 17.01.2020 23:00:00 (CET)Aelvdalen, Zweden (2321): windrichting: 11.01.2020 23:00:00 - 17.01.2020 23:00:00 (CET)Aelvdalen, Zweden (2321): luchtdruk: 11.01.2020 23:00:00 - 17.01.2020 23:00:00 (CET)Aelvdalen, Zweden (2321): zicht: 11.01.2020 23:00:00 - 17.01.2020 23:00:00 (CET)Aelvdalen, Zweden (2321): neerslag: 11.01.2020 23:00:00 - 17.01.2020 23:00:00 (CET)
Datum & Tijd tt [°C] td [°C] ff [km/u] ff [kn] fx [km/u] fx [kn] dd ppp [hPa] vv [km] rr [mm]
17.01.2020 23:00:00 3,4 3,3 3 1 10 5 O 1006,5 3,9 0,1
17.01.2020 22:00:00 3,3 3,2 4 2 9 5 OZO 1006,8 2,5 0,1
17.01.2020 21:00:00 3,6 3,5 5 3 11 6 ZZO 1007,3 1,6 0,3
17.01.2020 20:00:00 3,4 3,3 4 2 11 6 ZZO 1007,7 1,7 0,0
17.01.2020 19:00:00 3,6 3,5 4 2 10 5 Z 1008,0 3,1 0,0
17.01.2020 18:00:00 3,4 3,3 4 2 16 9 OZO 1008,3 8 0,0
17.01.2020 17:00:00 3,6 3,3 8 5 14 7 ZO 1008,8 3,7 0,0
17.01.2020 16:00:00 3,4 3,0 5 3 8 5 ZO 1008,9 9 0,0
17.01.2020 15:00:00 3,2 2,8 3 2 10 6 OZO 1009,3 10 0,0
17.01.2020 14:00:00 3,7 3,4 7 4 11 6 OZO 1009,7 16 0,0
17.01.2020 13:00:00 3,3 3,0 4 2 8 4 OZO 1010,0 10 0,0
17.01.2020 12:00:00 3,1 2,7 2 1 12 7 OZO 1010,3 8 0,0
17.01.2020 11:00:00 3,0 2,7 0 0 10 5 N 1010,4 8 0,0
17.01.2020 10:00:00 2,8 2,4 2 1 11 6 ZZO 1010,6 12 0,2
17.01.2020 09:00:00 2,9 2,3 7 4 10 6 ZO 1010,8 9 0,3
17.01.2020 08:00:00 2,3 1,7 4 2 13 7 O 1011,4 15 0,4
17.01.2020 07:00:00 2,7 1,7 8 5 15 8 ZO 1011,8 11 0,7
17.01.2020 06:00:00 2,8 1,9 5 3 12 6 OZO 1012,9 12 0,3
17.01.2020 05:00:00 3,1 1,1 4 2 14 8 Z 1013,2 13 0,0
17.01.2020 04:00:00 2,7 0,4 6 3 15 8 Z 1013,8 29 0,0
17.01.2020 03:00:00 1,2 -0,6 3 2 11 6 Z 1014,3 42 0,0
17.01.2020 02:00:00 0,8 -1,6 4 2 11 6 ZO 1014,5 49 0,0
17.01.2020 01:00:00 -1,1 -2,1 3 1 6 4 ONO 1014,9 50 0,0
17.01.2020 00:00:00 1,0 -1,2 4 2 14 8 Z 1015,0 50 0,0
16.01.2020 23:00:00 -1,3 -2,1 3 2 9 5 NNO 1014,0 50 0,0
16.01.2020 22:00:00 -0,8 -2,1 5 3 19 10 O 1014,2 50 0,0
16.01.2020 21:00:00 -0,2 -1,5 4 2 10 6 WZW 1013,6 50 0,0
16.01.2020 20:00:00 0,7 -1,4 7 4 13 7 OZO 1013,0 50 0,0
16.01.2020 19:00:00 0,7 -0,9 3 2 16 8 ZZW 1012,3 50 0,0
16.01.2020 18:00:00 1,2 -0,4 4 2 14 8 O 1011,5 50 0,0
16.01.2020 17:00:00 0,8 -1,0 7 4 22 12 OZO 1010,7 50 0,0
16.01.2020 16:00:00 4,1 0,3 6 4 15 8 ZZO 1009,7 50 0,0
16.01.2020 15:00:00 4,2 0,3 4 2 16 9 Z 1008,7 50 0,0
16.01.2020 14:00:00 5,3 0,7 5 3 11 6 Z 1007,7 50 0,0
16.01.2020 13:00:00 5,6 0,8 6 3 18 10 ZZW 1006,6 50 0,0
16.01.2020 12:00:00 5,2 0,8 5 3 17 9 Z 1005,6 50 0,0
16.01.2020 11:00:00 3,3 1,0 5 3 9 5 ZO 1004,7 32 0,0
16.01.2020 10:00:00 1,2 -0,1 3 2 17 9 WZW 1003,6 26 0,0
16.01.2020 09:00:00 1,3 0,0 5 3 9 5 ZO 1002,4 23 0,0
16.01.2020 08:00:00 2,5 -0,1 0 0 16 9 N 1001,0 39 0,0
16.01.2020 07:00:00 3,8 0,5 3 1 17 9 Z 999,9 48 0,0
16.01.2020 06:00:00 2,1 0,5 3 2 11 6 O 999,5 35 0,0
16.01.2020 05:00:00 1,6 0,4 4 2 10 5 ZW 998,8 25 0,0
16.01.2020 04:00:00 2,5 0,6 3 1 19 10 OZO 998,0 33 0,0
16.01.2020 03:00:00 2,3 0,4 7 4 - - ONO 997,6 31 0,0
16.01.2020 02:00:00 1,4 -0,2 4 2 11 6 Z 997,4 24 0,0
16.01.2020 01:00:00 2,0 -0,1 10 5 16 9 O 997,2 26 0,0
16.01.2020 00:00:00 2,4 -0,4 5 3 11 6 Z 996,9 41 0,0
15.01.2020 23:00:00 1,5 -0,6 5 3 10 6 ZZW 996,6 41 0,0
15.01.2020 22:00:00 1,3 -0,6 5 3 13 7 ZO 996,4 36 0,0
15.01.2020 21:00:00 1,7 -0,4 6 3 11 6 ZZO 995,8 38 0,0
15.01.2020 20:00:00 1,0 -0,6 7 4 12 6 ZZO 995,7 35 0,0
15.01.2020 19:00:00 -0,9 -1,9 4 2 9 5 OZO 995,3 40 0,0
15.01.2020 18:00:00 0,8 -1,3 6 3 16 9 O 995,0 50 0,0
15.01.2020 17:00:00 2,1 -1,2 9 5 19 10 ZW 994,0 50 0,0
15.01.2020 16:00:00 2,2 -1,1 3 2 24 13 NW 993,2 50 0,0
15.01.2020 15:00:00 3,4 -0,8 16 8 39 21 WZW 991,8 50 0,0
15.01.2020 14:00:00 4,0 -0,6 10 5 31 17 W 990,9 50 0,0
15.01.2020 13:00:00 4,2 -0,2 18 10 42 23 WZW 989,7 50 0,0
15.01.2020 12:00:00 4,4 0,5 20 11 41 22 WZW 988,4 50 0,0
15.01.2020 11:00:00 4,3 1,3 18 10 37 20 WZW 986,7 50 0,0
15.01.2020 10:00:00 4,0 1,5 12 6 40 21 W 985,2 50 0,0
15.01.2020 09:00:00 3,3 1,5 14 8 35 19 W 983,8 50 0,0
15.01.2020 08:00:00 0,3 0,2 3 2 11 6 N 983,2 22 0,1
15.01.2020 07:00:00 0,4 0,3 3 1 - - ZZO 982,3 4,4 0,2
15.01.2020 06:00:00 0,2 0,1 3 1 - - Z 982,1 3,6 1,0
15.01.2020 05:00:00 0,3 0,0 0 0 9 5 N 983,2 2,1 2,3
15.01.2020 04:00:00 0,3 0,0 3 2 10 5 ZO 985,2 1,9 2,5
15.01.2020 03:00:00 1,3 0,6 6 3 16 9 ZO 987,0 7 0,8
15.01.2020 02:00:00 2,2 1,0 11 6 19 10 ZO 988,6 6 0,4
15.01.2020 01:00:00 2,2 0,7 8 4 12 6 OZO 990,0 10 0,0
15.01.2020 00:00:00 1,4 -0,2 6 3 14 8 O 991,2 20 0,0
14.01.2020 23:00:00 2,1 -0,2 6 3 16 8 ZZO 992,1 27 0,0
14.01.2020 22:00:00 1,8 0,0 5 3 14 7 ZZW 992,1 27 0,0
14.01.2020 21:00:00 2,0 -0,1 6 3 14 8 ZZO 991,3 37 0,0
14.01.2020 20:00:00 2,6 0,7 6 3 16 9 Z 990,8 30 0,0
14.01.2020 19:00:00 2,5 1,2 5 3 15 8 Z 990,2 24 0,0
14.01.2020 18:00:00 3,0 1,8 6 4 14 8 Z 989,2 22 0,0
14.01.2020 17:00:00 2,5 1,6 6 4 16 8 ZZO 988,8 37 0,0
14.01.2020 16:00:00 2,2 1,8 2 1 9 5 ZO 988,7 12 0,0
14.01.2020 15:00:00 2,0 1,6 5 3 12 6 NO 988,8 50 0,2
14.01.2020 14:00:00 2,0 1,4 7 4 23 13 Z 988,9 10 0,0
14.01.2020 13:00:00 2,0 1,1 13 7 33 18 ZZO 988,9 7 0,0
14.01.2020 12:00:00 1,6 0,9 15 8 32 17 ZZO 989,2 4,6 0,4
14.01.2020 11:00:00 1,1 0,4 14 7 29 16 ZO 989,7 6 1,1
14.01.2020 10:00:00 1,2 0,3 15 8 33 18 ZZO 990,4 6 0,9
14.01.2020 09:00:00 1,5 0,3 17 9 34 19 ZZO 991,4 7 0,4
14.01.2020 08:00:00 2,1 0,2 19 10 42 23 ZO 992,6 18 0,1
14.01.2020 07:00:00 2,3 0,4 16 9 34 18 ZZO 994,6 50 0,0
14.01.2020 06:00:00 1,8 0,8 13 7 23 13 ZZO 996,0 10 0,4
14.01.2020 05:00:00 1,5 0,5 13 7 27 15 ZZO 997,5 9 0,2
14.01.2020 04:00:00 1,6 0,1 10 6 28 15 ZZO 999,3 50 0,0
14.01.2020 03:00:00 -4,2 -4,6 3 2 11 6 NW 1000,8 6 0,0
14.01.2020 02:00:00 -5,2 -5,9 0 0 6 4 N 1002,3 7 0,0
14.01.2020 01:00:00 -5,2 -5,9 0 0 5 3 N 1003,1 5 0,0
14.01.2020 00:00:00 -6,2 -7,0 0 0 4 2 N 1004,0 50 0,0
13.01.2020 23:00:00 -7,0 -7,9 2 1 - - ONO 1004,3 50 0,0
13.01.2020 22:00:00 -8,3 -9,2 3 2 8 5 W 1005,0 50 0,0
13.01.2020 21:00:00 -9,7 -10,9 0 0 9 5 N 1005,3 50 0,0
13.01.2020 20:00:00 -9,3 -10,4 2 1 10 5 ZW 1005,4 50 0,0
13.01.2020 19:00:00 -9,5 -10,6 3 2 7 4 N 1005,2 50 0,0
13.01.2020 18:00:00 -8,6 -9,5 2 1 4 2 NNO 1004,9 50 0,0
13.01.2020 17:00:00 -7,7 -8,6 0 0 7 4 N 1005,2 50 0,0
13.01.2020 16:00:00 -6,6 -7,5 0 0 6 3 N 1004,9 27 0,0
13.01.2020 15:00:00 -5,7 -6,9 3 1 6 4 ZW 1004,2 50 0,0
13.01.2020 14:00:00 -4,7 -6,2 0 0 6 3 N 1004,6 50 0,0
13.01.2020 13:00:00 -5,7 -6,9 0 0 5 3 N 1005,0 50 0,0
13.01.2020 12:00:00 -6,9 -8,0 3 1 6 4 ZO 1005,4 50 0,0
13.01.2020 11:00:00 -7,6 -8,7 0 0 - - N 1005,6 50 0,0
13.01.2020 10:00:00 -7,6 -8,5 3 1 - - ZO 1005,1 50 0,0
13.01.2020 09:00:00 -8,1 -9,0 3 1 5 3 N 1005,1 50 0,0
13.01.2020 08:00:00 -8,0 -8,9 3 2 9 5 WZW 1004,7 50 0,0
13.01.2020 07:00:00 -8,4 -9,3 2 1 10 5 ZZO 1004,1 50 0,0
13.01.2020 06:00:00 -8,2 -9,0 0 0 7 4 N 1003,9 50 0,0
13.01.2020 05:00:00 -7,7 -8,4 0 0 9 5 N 1003,7 50 0,0
13.01.2020 04:00:00 -7,2 -8,0 2 1 9 5 W 1003,6 50 0,0
13.01.2020 03:00:00 -6,7 -7,4 0 0 7 4 N 1003,3 50 0,0
13.01.2020 02:00:00 -5,9 -6,6 5 3 13 7 ZW 1003,0 50 0,0
13.01.2020 01:00:00 -6,2 -7,0 5 3 - - Z 1002,8 50 0,0
13.01.2020 00:00:00 -6,2 -6,9 0 0 10 5 N 1002,0 50 0,0
12.01.2020 23:00:00 -6,4 -7,2 3 2 9 5 NO 1002,2 50 0,0
12.01.2020 22:00:00 -5,5 -6,2 0 0 6 3 N 1001,6 50 0,0
12.01.2020 21:00:00 -5,0 -5,8 5 3 10 6 N 1001,5 50 0,0
12.01.2020 20:00:00 -4,6 -5,6 2 1 8 5 W 1001,1 50 0,0
12.01.2020 19:00:00 -3,9 -5,0 2 1 8 4 N 1001,1 50 0,0
12.01.2020 18:00:00 -3,3 -4,9 0 0 7 4 N 1000,7 50 0,0
12.01.2020 17:00:00 -1,8 -4,0 2 1 23 12 NNO 1000,2 50 0,0
12.01.2020 16:00:00 2,8 -4,0 8 4 29 16 W 999,7 50 0,0
12.01.2020 15:00:00 3,3 -3,7 14 8 29 15 W 999,0 50 0,0
12.01.2020 14:00:00 3,7 -2,7 14 7 29 16 W 998,5 50 0,0
12.01.2020 13:00:00 4,2 -2,2 17 9 37 20 W 997,6 50 0,0
12.01.2020 12:00:00 4,2 -1,2 16 9 32 17 W 996,7 50 0,0
12.01.2020 11:00:00 0,9 -0,3 5 3 13 7 ONO 996,6 47 0,0
12.01.2020 10:00:00 -1,9 -2,2 0 0 6 4 N 996,4 50 0,0
12.01.2020 09:00:00 -1,7 -2,0 0 0 6 3 N 995,9 50 0,0
12.01.2020 08:00:00 -1,9 -2,2 0 0 7 4 N 995,9 50 0,0
12.01.2020 07:00:00 -0,5 -0,9 4 2 11 6 ZZW 996,3 50 0,0
12.01.2020 06:00:00 0,2 -0,5 2 1 7 4 ZZW 996,3 50 0,0
12.01.2020 05:00:00 4,0 1,0 7 4 19 10 W 995,6 50 0,0
12.01.2020 04:00:00 4,4 1,8 7 4 26 14 WNW 995,1 50 0,0
12.01.2020 03:00:00 5,2 2,4 12 6 26 14 WZW 994,7 50 0,0
12.01.2020 02:00:00 5,3 2,6 11 6 26 14 W 994,1 50 0,0
12.01.2020 01:00:00 6,0 3,3 15 8 36 19 W 994,1 50 0,0
12.01.2020 00:00:00 5,9 3,6 17 9 41 22 WZW 993,8 50 0,0
11.01.2020 23:00:00 5,8 3,6 21 12 45 24 WZW 993,7 50 0,0

tt = temperatuur
td = dauwpunt
ff = windsnelheid
fx = windstoten
dd = windrichting
ppp = luchtdruk
vv = zicht
rr = neerslag

Weerstations in de omgeving